• In Hungary
  • List of Countries
  • For 7 days
  • Water Temperature
  • Satellite Maps
  • Weather Map
  • News
  • Weather Widgets
  • user-avatar
    Login

    Hourly Weather Hucknall

    Today, 22 January, Monday

    Time Temperature Precipitation Wind Pressure Humidity
    00:00 +3°C° 0 mm 5 mps 743 mmHg 96%
    01:00 +4°C° 0 mm 4 mps 744 mmHg 96%
    02:00 +3°C° 0 mm 4 mps 744 mmHg 95%
    03:00 +3°C° 0 mm 3 mps 744 mmHg 94%
    04:00 +3°C° 0 mm 3 mps 745 mmHg 94%
    05:00 +3°C° 0 mm 3 mps 745 mmHg 94%
    06:00 +3°C° 0 mm 4 mps 745 mmHg 94%
    07:00 +3°C° 0 mm 4 mps 746 mmHg 94%
    08:00 +3°C° 0 mm 4 mps 746 mmHg 93%
    09:00 +3°C° 0 mm 4 mps 747 mmHg 93%
    10:00 +3°C° 0 mm 5 mps 747 mmHg 90%
    11:00 +5°C° 0 mm 5 mps 748 mmHg 87%
    12:00 +6°C° 0 mm 5 mps 748 mmHg 85%
    13:00 +6°C° 0 mm 5 mps 749 mmHg 84%
    14:00 +6°C° 0 mm 4 mps 749 mmHg 84%
    15:00 +6°C° 0 mm 4 mps 750 mmHg 84%
    16:00 +5°C° 0 mm 4 mps 750 mmHg 86%
    17:00 +4°C° 0 mm 4 mps 751 mmHg 87%
    18:00 +3°C° 0 mm 3 mps 751 mmHg 89%
    19:00 +3°C° 0 mm 3 mps 751 mmHg 90%
    20:00 +3°C° 0 mm 3 mps 752 mmHg 90%
    21:00 +3°C° 0 mm 3 mps 752 mmHg 91%
    22:00 +3°C° 0 mm 3 mps 752 mmHg 91%
    23:00 +3°C° 0 mm 3 mps 752 mmHg 92%

    Tomorrow, 23 January, Tuesday

    Time Temperature Precipitation Wind Pressure Humidity
    00:00 +2°C° 0 mm 3 mps 752 mmHg 92%
    01:00 +3°C° 0 mm 4 mps 751 mmHg 93%
    02:00 +3°C° 0 mm 4 mps 751 mmHg 93%
    03:00 +3°C° 0 mm 4 mps 750 mmHg 93%
    04:00 +2°C° 0 mm 5 mps 750 mmHg 93%
    05:00 +3°C° 0 mm 5 mps 749 mmHg 93%
    06:00 +4°C° 0 mm 6 mps 748 mmHg 93%
    07:00 +5°C° 0 mm 6 mps 748 mmHg 93%
    08:00 +7°C° 0 mm 6 mps 747 mmHg 94%
    09:00 +8°C° 0 mm 6 mps 747 mmHg 94%
    10:00 +9°C° 0 mm 7 mps 747 mmHg 91%
    11:00 +10°C° 0 mm 7 mps 747 mmHg 87%
    12:00 +11°C° 0 mm 8 mps 746 mmHg 83%
    13:00 +11°C° 0.1 mm 8 mps 746 mmHg 84%
    14:00 +11°C° 0.1 mm 7 mps 746 mmHg 84%
    15:00 +10°C° 0.1 mm 7 mps 746 mmHg 85%
    16:00 +10°C° 0 mm 7 mps 746 mmHg 86%
    17:00 +9°C° 0 mm 6 mps 746 mmHg 87%
    18:00 +8°C° 0 mm 6 mps 747 mmHg 88%
    19:00 +8°C° 0 mm 6 mps 747 mmHg 88%
    20:00 +8°C° 0 mm 6 mps 747 mmHg 89%
    21:00 +8°C° 0 mm 6 mps 747 mmHg 90%
    22:00 +8°C° 0 mm 6 mps 746 mmHg 89%
    23:00 +8°C° 0 mm 7 mps 745 mmHg 89%

    Day after tomorrow, 24 January, Wednesday

    Time Temperature Precipitation Wind Pressure Humidity
    00:00 +8°C° 0 mm 7 mps 745 mmHg 89%
    01:00 +9°C° 0.1 mm 8 mps 744 mmHg 87%
    02:00 +10°C° 0.1 mm 9 mps 742 mmHg 85%
    03:00 +9°C° 0.1 mm 10 mps 741 mmHg 83%
    04:00 +9°C° 0.4 mm 11 mps 741 mmHg 82%
    05:00 +9°C° 0.4 mm 12 mps 740 mmHg 81%
    06:00 +9°C° 0.4 mm 13 mps 739 mmHg 80%
    07:00 +8°C° 1.1 mm 11 mps 740 mmHg 77%
    08:00 +7°C° 1.1 mm 9 mps 740 mmHg 75%
    09:00 +5°C° 1.1 mm 8 mps 741 mmHg 72%
    10:00 +5°C° 0 mm 7 mps 741 mmHg 70%
    11:00 +5°C° 0 mm 7 mps 742 mmHg 69%
    12:00 +6°C° 0 mm 7 mps 742 mmHg 67%
    13:00 +7°C° 0 mm 6 mps 742 mmHg 68%
    14:00 +7°C° 0 mm 6 mps 742 mmHg 68%
    15:00 +7°C° 0 mm 5 mps 741 mmHg 69%
    16:00 +6°C° 0 mm 5 mps 742 mmHg 71%
    17:00 +5°C° 0 mm 5 mps 742 mmHg 73%
    18:00 +5°C° 0 mm 5 mps 742 mmHg 76%
    19:00 +3°C° 0 mm 6 mps 742 mmHg 77%
    20:00 +3°C° 0 mm 6 mps 742 mmHg 78%
    21:00 +3°C° 0 mm 6 mps 742 mmHg 80%
    22:00 +3°C° 0 mm 6 mps 742 mmHg 80%
    23:00 +3°C° 0 mm 6 mps 742 mmHg 81%

    25 January, Thursday

    Time Temperature Precipitation Wind Pressure Humidity
    00:00 +2°C° 0 mm 5 mps 742 mmHg 82%
    01:00 +2°C° 0 mm 5 mps 742 mmHg 82%
    02:00 +2°C° 0 mm 5 mps 741 mmHg 82%
    03:00 +2°C° 0 mm 5 mps 741 mmHg 82%
    04:00 +2°C° 0 mm 5 mps 741 mmHg 82%
    05:00 +2°C° 0 mm 5 mps 741 mmHg 82%
    06:00 +2°C° 0 mm 6 mps 740 mmHg 82%
    07:00 +2°C° 0 mm 6 mps 740 mmHg 81%
    08:00 +2°C° 0 mm 6 mps 740 mmHg 79%
    09:00 +2°C° 0 mm 7 mps 740 mmHg 78%
    10:00 +3°C° 0 mm 7 mps 740 mmHg 74%
    11:00 +4°C° 0 mm 7 mps 740 mmHg 71%
    12:00 +5°C° 0 mm 8 mps 740 mmHg 67%
    13:00 +5°C° 0 mm 8 mps 740 mmHg 66%
    14:00 +5°C° 0 mm 7 mps 740 mmHg 66%
    15:00 +5°C° 0 mm 7 mps 740 mmHg 66%
    16:00 +4°C° 0 mm 7 mps 740 mmHg 69%
    17:00 +4°C° 0 mm 7 mps 741 mmHg 71%
    18:00 +3°C° 0 mm 7 mps 741 mmHg 74%
    19:00 +3°C° 0 mm 7 mps 742 mmHg 76%
    20:00 +3°C° 0 mm 6 mps 743 mmHg 78%
    21:00 +2°C° 0 mm 6 mps 744 mmHg 80%
    22:00 +2°C° 0 mm 6 mps 745 mmHg 80%
    23:00 +2°C° 0 mm 5 mps 746 mmHg 80%

    26 January, Friday

    Time Temperature Precipitation Wind Pressure Humidity
    00:00 +2°C° 0 mm 5 mps 747 mmHg 80%
    01:00 +2°C° 0 mm 6 mps 747 mmHg 79%
    02:00 +2°C° 0 mm 6 mps 748 mmHg 79%
    03:00 +2°C° 0 mm 6 mps 748 mmHg 78%
    04:00 +2°C° 0 mm 6 mps 749 mmHg 77%
    05:00 +2°C° 0 mm 6 mps 750 mmHg 76%
    06:00 +2°C° 0 mm 7 mps 751 mmHg 76%
    07:00 +2°C° 0 mm 6 mps 752 mmHg 75%
    08:00 +2°C° 0 mm 6 mps 753 mmHg 74%
    09:00 +1°C° 0 mm 6 mps 754 mmHg 74%
    10:00 +2°C° 0 mm 6 mps 754 mmHg 71%
    11:00 +3°C° 0 mm 6 mps 755 mmHg 68%
    12:00 +3°C° 0 mm 6 mps 756 mmHg 65%
    13:00 +3°C° 0 mm 6 mps 756 mmHg 64%
    14:00 +3°C° 0 mm 5 mps 757 mmHg 63%
    15:00 +4°C° 0 mm 4 mps 757 mmHg 62%
    16:00 +3°C° 0 mm 4 mps 758 mmHg 65%
    17:00 +2°C° 0 mm 3 mps 759 mmHg 68%
    18:00 +1°C° 0 mm 3 mps 759 mmHg 71%
    19:00 0°C° 0 mm 3 mps 760 mmHg 74%
    20:00 +1°C° 0 mm 2 mps 760 mmHg 76%
    21:00 +1°C° 0 mm 2 mps 760 mmHg 78%
    22:00 +1°C° 0 mm 2 mps 760 mmHg 78%
    23:00 +1°C° 0 mm 2 mps 760 mmHg 79%

    27 January, Saturday

    Time Temperature Precipitation Wind Pressure Humidity
    00:00 +2°C° 0 mm 2 mps 760 mmHg 79%
    01:00 +1°C° 0.1 mm 3 mps 760 mmHg 80%
    02:00 +1°C° 0.1 mm 3 mps 760 mmHg 82%
    03:00 +1°C° 0.1 mm 4 mps 759 mmHg 83%
    04:00 +1°C° 0.3 mm 4 mps 759 mmHg 86%
    05:00 +3°C° 0.3 mm 4 mps 758 mmHg 89%
    06:00 +2°C° 0.3 mm 5 mps 758 mmHg 92%
    07:00 +2°C° 0.6 mm 5 mps 758 mmHg 93%
    08:00 +4°C° 0.6 mm 4 mps 758 mmHg 94%
    09:00 +5°C° 0.6 mm 4 mps 758 mmHg 95%
    10:00 +6°C° 0.3 mm 4 mps 758 mmHg 95%
    11:00 +7°C° 0.3 mm 5 mps 758 mmHg 94%
    12:00 +8°C° 0.3 mm 5 mps 757 mmHg 93%
    13:00 +8°C° 0.3 mm 5 mps 757 mmHg 92%
    14:00 +8°C° 0.3 mm 6 mps 757 mmHg 92%
    15:00 +8°C° 0.3 mm 6 mps 757 mmHg 91%
    16:00 +9°C° 0.3 mm 6 mps 757 mmHg 91%
    17:00 +9°C° 0.3 mm 6 mps 757 mmHg 91%
    18:00 +9°C° 0.3 mm 6 mps 758 mmHg 91%
    19:00 +9°C° 0.1 mm 6 mps 758 mmHg 91%
    20:00 +9°C° 0.1 mm 6 mps 758 mmHg 91%
    21:00 +9°C° 0.1 mm 6 mps 759 mmHg 91%
    22:00 +9°C° 0 mm 5 mps 759 mmHg 92%
    23:00 +9°C° 0 mm 5 mps 759 mmHg 92%
    Show more